Regional Weather Roundup
Issued by NWS

Home | Current Version | Previous Version | Text Only | Print | Product List | Glossary On
Versions: 1 2 3 4 5 6 7 8 9 10 11 12 13 14 15 16 17 18 19 20 21 22 23 24 25 26 27 28 29 30 31 32 33 34 35 36 37 38 39 40 41 42 43 44 45 46 47 48 49 50
000
ASUS44 KBMX 061810
RWRAL

ALABAMA REGIONAL WEATHER ROUNDUP
NATIONAL WEATHER SERVICE BIRMINGHAM AL
1200 PM CST FRI MAR 06 2015

NOTE: "FAIR" INDICATES FEW OR NO CLOUDS BELOW 12,000 FEET
WITH NO SIGNIFICANT WEATHER AND/OR OBSTRUCTIONS TO VISIBILITY.

THE REMARK "TC" DENOTES TEMPERATURE IN DEGREES CELSIUS.

ALZ001>011-014-016>018-020-061900-
NORTH ALABAMA

CITY           SKY/WX    TMP DP  RH WIND       PRES   REMARKS
MUSCLE SHOALS  FAIR      34  16  47 NW3       30.56F
6HR MIN TEMP:  16; 6HR MAX TEMP:  34;

HUNTSVILLE     FAIR      33  18  53 VRB5      30.54F WCI  29
6HR MIN TEMP:  17; 6HR MAX TEMP:  33;

DECATUR        FAIR      30  16  56 N8        30.56S WCI  22
6HR MIN TEMP:  15; 6HR MAX TEMP:  30;

HALEYVILLE       N/A     32  16  52 VRB7      30.55S WCI  26
6HR MIN TEMP:  12; 6HR MAX TEMP:  31; 6HR PCP:  0.01;

GADSDEN        CLOUDY    36  21  55 CALM      30.49F
6HR MIN TEMP:  19; 6HR MAX TEMP:  36;

$$

ALZ012-013-022-023-030>036-040>044-061900-
WEST CENTRAL ALABAMA

CITY           SKY/WX    TMP DP  RH WIND       PRES   REMARKS
TUSCALOOSA     FAIR      40  17  39 NE7       30.55F
6HR MIN TEMP:  21; 6HR MAX TEMP:  41;

$$

ALZ015-024>027-033>036-040>044-061900-
CENTRAL ALABAMA

CITY           SKY/WX    TMP DP  RH WIND       PRES   REMARKS
BIRMINGHAM     FAIR      38  23  55 VRB6      30.52F WCI  33
6HR MIN TEMP:  18; 6HR MAX TEMP:  38;

MONTGOMERY     FAIR      43  27  53 N8        30.49S
6HR MIN TEMP:  26; 6HR MAX TEMP:  43;

SHELBY CO ARPT CLOUDY   N/A N/A N/A N5        30.49F
MAXWELL AFB    FAIR      43  29  58 NW7       30.48S
6HR MIN TEMP:  25; 6HR MAX TEMP:  43;

GREENVILLE     NOT AVBL
$$

ALZ019-021-028-029-037-038-045>048-061900-
EAST CENTRAL ALABAMA

CITY           SKY/WX    TMP DP  RH WIND       PRES   REMARKS
ANNISTON       FAIR      40  27  59 VRB5      30.49F
6HR MIN TEMP:  23; 6HR MAX TEMP:  40;

ALEXANDER CITY FAIR      47  29  50 N3        30.45S
6HR MIN TEMP:  29; 6HR MAX TEMP:  47;

AUBURN         CLOUDY    43  30  61 E3        30.45S
6HR MIN TEMP:  27; 6HR MAX TEMP:  45;

$$

ALZ051>064-061900-
SOUTHWEST ALABAMA

CITY           SKY/WX    TMP DP  RH WIND       PRES   REMARKS
MOBILE         PTSUNNY   47  13  25 N18G24    30.45F
6HR MIN TEMP:  26; 6HR MAX TEMP:  47;

BROOKLEY FIELD FAIR      48  18  30 N17G24    30.46F
6HR MIN TEMP:  29; 6HR MAX TEMP:  48;

EVERGREEN      FAIR      43  25  49 N12       30.46F
6HR MIN TEMP:  25; 6HR MAX TEMP:  44;

$$

ALZ049-050-065>069-061900-
SOUTHEAST ALABAMA

CITY           SKY/WX    TMP DP  RH WIND       PRES   REMARKS
DOTHAN         CLOUDY    45  35  68 VRB7      30.44S
6HR MIN TEMP:  30; 6HR MAX TEMP:  45;

OZARK          CLOUDY    46  32  59 VRB5      30.41F
6HR MIN TEMP:  29; 6HR MAX TEMP:  46;

TROY           PTSUNNY   44  30  57 N5        30.45F
6HR MIN TEMP:  27; 6HR MAX TEMP:  44;

EUFAULA        CLOUDY    44  34  67 NE7       30.43S
6HR MIN TEMP:  32; 6HR MAX TEMP:  44;

$$


USA.gov is the U.S. government's official web portal to all federal, state and local government web resources and services.